Tracking 28790 objects as of 19-Apr-2024
HD Live streaming from Space Station
objects crossing your sky now

SL-16 DEB

Track SL-16 DEB now!
10-day predictions


NORAD ID: 20629
Int'l Code: 1990-046F
Perigee: 847.8 km
Apogee: 1,138.2 km
Inclination: 71.0 °
Period: 104.8 minutes
Semi major axis: 7364 km
RCS: 0.0949 m2 (small)
Launch date: May 22, 1990
Source: Commonwealth of Independent States (former USSR) (CIS)
Launch site: TYURATAM MISSILE AND SPACE COMPLEX (TTMTR)

Note: This is SATELLITE DEBRIS
Your satellite tracking list
Your tracking list is empty




NASA's NSSDC Master Catalog

Two Line Element Set (TLE):
1 20629U 90046F   24109.91308568  .00000302  00000-0  31863-3 0  9993
2 20629  71.0219 269.0323 0197166 108.6448  11.3059 13.73822793699364
Source of the keplerian elements: AFSPC